Lid_Strength_Index
8 8 9 9 10 10 8 8 8 7 8 9 9 10 10 10 10 11 11 11 11 12 12 12 12 12 12 12 12 11 11 12 13 12 12 11 12 12 11 10 10 9 9
10 10 10 11 11 11 11 11 9 10 10 10 10 11 12 12 12 12 13 13 13 13 13 13 13 12 13 12 13 13 12 12 13 14 12 13 12 11 12 12 11 10 10
11 11 11 11 11 11 13 12 11 11 12 13 13 14 14 14 14 13 13 14 14 14 14 14 13 13 14 14 13 13 13 12 13 14 14 12 12 11 12 11 11 11 10
12 12 12 12 12 12 12 13 14 14 14 15 15 15 14 14 14 14 14 15 14 14 14 14 14 14 15 14 14 13 13 13 13 13 13 13 12 12 12 12 13 12 12
12 13 14 14 14 14 14 15 15 15 15 15 15 15 15 14 14 15 15 15 14 15 15 15 14 15 13 13 13 13 13 13 13 14 14 13 13 13 13 12 13 12 11
14 14 14 15 15 15 16 15 15 15 15 15 16 16 16 14 11 11 13 15 15 15 15 15 15 15 13 12 12 12 12 13 14 13 14 14 13 12 12 11 11 11 12
15 15 15 15 16 15 15 15 15 16 16 16 16 16 16 15 12 12 13 15 15 15 15 14 14 14 14 14 12 11 11 11 11 12 13 12 12 10 10 10 11 11 12
15 15 15 15 15 15 16 16 17 17 17 17 17 17 17 15 12 12 13 14 14 14 14 14 14 14 13 13 12 12 12 13 11 10 10 10 9 9 9 10 10 11 11
15 15 16 16 17 17 17 17 17 18 18 18 17 18 18 17 13 12 13 15 14 14 13 13 13 13 11 11 12 12 12 10 8 7 7 7 8 8 8 10 11 13 14
16 16 17 17 18 18 17 18 18 18 18 17 17 17 18 19 14 12 12 15 17 14 14 13 12 13 10 10 11 11 11 10 10 10 10 9 9 9 8 9 10 13 13
17 17 18 18 18 18 19 19 20 19 18 20 19 19 20 19 16 13 12 13 13 13 13 14 14 11 10 8 8 11 11 8 9 10 11 10 10 10 9 9 9 10 12
18 19 20 20 19 20 21 22 20 20 20 20 20 19 18 18 15 13 12 12 11 13 13 14 14 10 9 8 9 8 8 7 11 11 11 12 12 10 10 9 8 8 10
20 22 22 21 20 20 19 19 20 20 19 19 18 20 20 18 19 14 13 12 12 15 13 11 9 9 9 11 9 9 9 10 11 14 13 12 12 10 9 9 10 14 14
21 21 21 21 20 19 19 20 20 20 20 20 20 21 21 19 19 18 17 18 14 13 12 13 12 11 11 12 14 12 11 10 11 12 12 11 11 12 10 9 13 12 17
21 21 21 20 21 21 20 20 20 20 19 22 23 22 22 23 19 12 13 18 16 12 18 22 21 20 19 19 18 17 15 15 15 13 12 11 12 11 10 9 11 14 14
21 21 21 22 21 21 21 22 18 17 15 14 14 17 20 13 12 12 11 11 12 12 24 27 25 22 21 20 20 19 18 17 16 15 13 13 13 12 11 9 11 12 13
19 22 21 22 22 23 24 22 23 22 16 15 14 14 13 13 13 13 13 13 14 19 29 29 28 26 24 22 22 21 19 18 17 15 15 14 13 13 12 11 10 11 11
24 23 23 24 24 24 24 24 27 27 27 27 20 17 14 14 14 14 15 20 28 28 32 31 30 29 27 25 24 23 20 19 18 17 17 16 14 14 14 12 11 11 11
25 25 25 25 26 26 27 30 30 32 31 31 31 22 23 16 15 17 18 30 31 32 33 32 31 30 28 27 26 24 25 22 19 21 20 19 17 16 15 14 13 12 11
28 25 26 25 26 26 28 28 30 31 31 33 32 31 31 28 29 31 33 35 34 33 32 32 31 32 30 29 29 28 26 25 24 25 23 20 18 17 16 15 14 14 13
25 26 24 25 26 27 27 27 27 28 29 31 29 31 19 25 29 31 32 34 31 32 31 32 32 32 31 31 30 30 29 25 25 25 25 22 20 19 17 16 16 15 14
24 24 24 24 25 26 27 28 29 29 29 30 31 32 17 29 33 31 32 30 30 30 30 30 29 29 28 28 29 29 27 26 26 26 25 23 22 20 19 19 18 17 16
25 26 25 26 25 27 28 30 29 29 29 30 31 31 33 32 32 31 30 29 32 32 32 32 27 26 28 28 28 26 25 25 25 27 25 25 24 21 21 20 20 20 19
25 24 24 26 27 27 26 28 29 29 29 29 31 31 30 31 30 30 29 30 32 30 29 30 29 27 27 27 28 27 25 25 25 24 25 24 24 21 20 20 21 21 20
24 25 25 25 26 26 27 29 30 30 30 29 30 32 30 30 29 27 26 27 28 29 28 28 28 28 26 26 26 27 26 22 23 24 25 27 25 24 23 21 21 23 23
25 25 26 25 29 28 27 29 29 29 29 28 28 26 25 24 24 24 25 26 28 27 27 28 28 27 27 26 26 24 24 19 20 21 22 24 22 21 25 25 22 25 24